Terminal Aerodrome Forecast
Issued by NWS

Home | Current Version | Previous Version | Text Only | Print | Product List | Glossary On
Versions: 1 2 3 4 5 6 7 8 9 10 11 12 13 14 15 16 17 18 19 20 21 22 23 24 25 26
000
FTUS45 KCYS 301122
TAFLAR
TAF
KLAR 301122Z 3012/0112 20007KT P6SM SKC
     FM301900 30014G21KT P6SM VCTS SCT080CB BKN100
     FM010200 13007KT P6SM BKN120=

USA.gov is the U.S. government's official web portal to all federal, state and local government web resources and services.